When you browse on this site, cookies collect data to enhance your experience and personalize the content and advertising you see.
Visit our Privacy Policy to learn more. By continuing to use the site, you agree to this use of cookies and data.
  • In Spain
  • List of Countries
  • For 7 days
  • Water Temperature
  • Weather Map
  • Weather Widgets
  • user-avatar
    Login

    Hourly Weather Ordino

    Today, 26 May, Tuesday

    Time Temperature Precipitation Wind Pressure Humidity
    00:00 +9°C° 0 mm 1 mps 639 mmHg 86%
    01:00 +9°C° 0 mm 1 mps 639 mmHg 83%
    02:00 +8°C° 0 mm 1 mps 639 mmHg 79%
    03:00 +8°C° 0 mm 1 mps 638 mmHg 76%
    04:00 +9°C° 0 mm 1 mps 639 mmHg 73%
    05:00 +10°C° 0 mm 1 mps 639 mmHg 70%
    06:00 +11°C° 0 mm 1 mps 639 mmHg 67%
    07:00 +14°C° 0 mm 1 mps 640 mmHg 60%
    08:00 +16°C° 0 mm 1 mps 641 mmHg 53%
    09:00 +19°C° 0 mm 1 mps 642 mmHg 46%
    10:00 +20°C° 0 mm 1 mps 643 mmHg 44%
    11:00 +21°C° 0 mm 1 mps 643 mmHg 43%
    12:00 +21°C° 0 mm 2 mps 643 mmHg 41%
    13:00 +21°C° 0 mm 2 mps 642 mmHg 46%
    14:00 +20°C° 0 mm 2 mps 642 mmHg 51%
    15:00 +20°C° 0 mm 2 mps 641 mmHg 55%
    16:00 +18°C° 0.2 mm 2 mps 641 mmHg 65%
    17:00 +17°C° 0.2 mm 2 mps 640 mmHg 75%
    18:00 +15°C° 0.2 mm 1 mps 640 mmHg 85%
    19:00 +14°C° 0.1 mm 1 mps 639 mmHg 87%
    20:00 +13°C° 0.1 mm 1 mps 639 mmHg 90%
    21:00 +11°C° 0.1 mm 1 mps 639 mmHg 92%
    22:00 +11°C° 0 mm 1 mps 639 mmHg 89%
    23:00 +10°C° 0 mm 1 mps 638 mmHg 85%

    Tomorrow, 27 May, Wednesday

    Time Temperature Precipitation Wind Pressure Humidity
    00:00 +8°C° 0 mm 2 mps 638 mmHg 82%
    01:00 +8°C° 0 mm 2 mps 638 mmHg 76%
    02:00 +8°C° 0 mm 1 mps 638 mmHg 70%
    03:00 +8°C° 0 mm 1 mps 638 mmHg 65%
    04:00 +9°C° 0 mm 1 mps 638 mmHg 65%
    05:00 +10°C° 0 mm 1 mps 639 mmHg 65%
    06:00 +11°C° 0 mm 1 mps 639 mmHg 65%
    07:00 +14°C° 0 mm 1 mps 640 mmHg 57%
    08:00 +16°C° 0 mm 1 mps 641 mmHg 50%
    09:00 +19°C° 0 mm 1 mps 642 mmHg 42%
    10:00 +20°C° 0 mm 1 mps 642 mmHg 42%
    11:00 +20°C° 0 mm 2 mps 642 mmHg 41%
    12:00 +20°C° 0 mm 2 mps 642 mmHg 41%
    13:00 +19°C° 0.1 mm 2 mps 642 mmHg 49%
    14:00 +18°C° 0.1 mm 2 mps 642 mmHg 57%
    15:00 +17°C° 0.1 mm 2 mps 641 mmHg 65%
    16:00 +16°C° 0.3 mm 2 mps 641 mmHg 72%
    17:00 +15°C° 0.3 mm 1 mps 640 mmHg 78%
    18:00 +14°C° 0.3 mm 1 mps 640 mmHg 85%
    19:00 +14°C° 0.1 mm 1 mps 640 mmHg 88%
    20:00 +13°C° 0.1 mm 1 mps 640 mmHg 91%
    21:00 +12°C° 0.1 mm 1 mps 640 mmHg 95%
    22:00 +12°C° 0 mm 1 mps 640 mmHg 95%
    23:00 +11°C° 0 mm 1 mps 640 mmHg 95%

    Day after tomorrow, 28 May, Thursday

    Time Temperature Precipitation Wind Pressure Humidity
    00:00 +11°C° 0 mm 1 mps 639 mmHg 95%
    01:00 +11°C° 0 mm 1 mps 639 mmHg 94%
    02:00 +11°C° 0 mm 1 mps 639 mmHg 94%
    03:00 +11°C° 0 mm 1 mps 639 mmHg 94%
    04:00 +11°C° 0 mm 1 mps 639 mmHg 91%
    05:00 +11°C° 0 mm 1 mps 639 mmHg 89%
    06:00 +12°C° 0 mm 1 mps 639 mmHg 87%
    07:00 +14°C° 0 mm 1 mps 640 mmHg 75%
    08:00 +16°C° 0 mm 1 mps 640 mmHg 63%
    09:00 +19°C° 0 mm 1 mps 641 mmHg 51%
    10:00 +19°C° 0 mm 1 mps 641 mmHg 50%
    11:00 +19°C° 0 mm 2 mps 641 mmHg 49%
    12:00 +19°C° 0 mm 2 mps 641 mmHg 49%
    13:00 +19°C° 0.4 mm 2 mps 640 mmHg 54%
    14:00 +18°C° 0.4 mm 2 mps 639 mmHg 60%
    15:00 +17°C° 0.4 mm 2 mps 639 mmHg 66%
    16:00 +18°C° 0.4 mm 1 mps 638 mmHg 70%
    17:00 +16°C° 0.4 mm 1 mps 638 mmHg 74%
    18:00 +15°C° 0.4 mm 1 mps 638 mmHg 79%
    19:00 +14°C° 0 mm 1 mps 637 mmHg 83%
    20:00 +12°C° 0 mm 1 mps 637 mmHg 88%
    21:00 +11°C° 0 mm 1 mps 636 mmHg 92%
    22:00 +10°C° 0 mm 1 mps 636 mmHg 90%
    23:00 +10°C° 0 mm 1 mps 636 mmHg 88%

    29 May, Friday

    Time Temperature Precipitation Wind Pressure Humidity
    00:00 +10°C° 0 mm 1 mps 636 mmHg 87%
    01:00 +9°C° 0 mm 1 mps 635 mmHg 82%
    02:00 +9°C° 0 mm 1 mps 635 mmHg 77%
    03:00 +9°C° 0 mm 1 mps 635 mmHg 72%
    04:00 +10°C° 0 mm 1 mps 635 mmHg 70%
    05:00 +11°C° 0 mm 1 mps 635 mmHg 69%
    06:00 +12°C° 0 mm 1 mps 636 mmHg 67%
    07:00 +14°C° 0 mm 1 mps 636 mmHg 58%
    08:00 +18°C° 0 mm 1 mps 637 mmHg 49%
    09:00 +20°C° 0 mm 1 mps 638 mmHg 39%
    10:00 +21°C° 0 mm 1 mps 638 mmHg 38%
    11:00 +22°C° 0 mm 1 mps 638 mmHg 36%
    12:00 +21°C° 0 mm 2 mps 638 mmHg 35%
    13:00 +21°C° 0.1 mm 2 mps 638 mmHg 39%
    14:00 +21°C° 0.1 mm 2 mps 637 mmHg 43%
    15:00 +20°C° 0.1 mm 2 mps 637 mmHg 47%
    16:00 +20°C° 0.4 mm 1 mps 636 mmHg 57%
    17:00 +19°C° 0.4 mm 1 mps 636 mmHg 67%
    18:00 +16°C° 0.4 mm 1 mps 635 mmHg 77%
    19:00 +14°C° 0 mm 1 mps 635 mmHg 82%
    20:00 +13°C° 0 mm 1 mps 634 mmHg 87%
    21:00 +11°C° 0 mm 1 mps 634 mmHg 92%
    22:00 +11°C° 0 mm 1 mps 634 mmHg 91%
    23:00 +11°C° 0 mm 1 mps 634 mmHg 90%

    30 May, Saturday

    Time Temperature Precipitation Wind Pressure Humidity
    00:00 +11°C° 0 mm 1 mps 633 mmHg 90%
    01:00 +10°C° 0 mm 1 mps 633 mmHg 89%
    02:00 +10°C° 0 mm 1 mps 633 mmHg 87%
    03:00 +10°C° 0 mm 1 mps 633 mmHg 86%
    04:00 +11°C° 0 mm 1 mps 633 mmHg 83%
    05:00 +12°C° 0 mm 1 mps 633 mmHg 79%
    06:00 +12°C° 0 mm 1 mps 633 mmHg 76%
    07:00 +14°C° 0 mm 1 mps 634 mmHg 66%
    08:00 +18°C° 0 mm 1 mps 635 mmHg 55%
    09:00 +20°C° 0 mm 1 mps 636 mmHg 44%
    10:00 +20°C° 0 mm 2 mps 636 mmHg 42%
    11:00 +20°C° 0 mm 2 mps 636 mmHg 40%
    12:00 +21°C° 0 mm 2 mps 636 mmHg 37%
    13:00 +21°C° 0.1 mm 2 mps 636 mmHg 40%
    14:00 +20°C° 0.1 mm 2 mps 636 mmHg 44%
    15:00 +20°C° 0.1 mm 2 mps 636 mmHg 47%
    16:00 +19°C° 0.2 mm 2 mps 635 mmHg 57%
    17:00 +18°C° 0.2 mm 1 mps 635 mmHg 67%
    18:00 +16°C° 0.2 mm 1 mps 634 mmHg 77%
    19:00 +15°C° 0 mm 1 mps 634 mmHg 82%
    20:00 +13°C° 0 mm 1 mps 634 mmHg 88%
    21:00 +10°C° 0 mm 0 mps 634 mmHg 93%
    22:00 +11°C° 0 mm 1 mps 634 mmHg 93%
    23:00 +11°C° 0 mm 1 mps 634 mmHg 93%

    31 May, Sunday

    Time Temperature Precipitation Wind Pressure Humidity
    00:00 +11°C° 0 mm 1 mps 634 mmHg 93%
    01:00 +11°C° 0 mm 1 mps 633 mmHg 92%
    02:00 +11°C° 0 mm 1 mps 633 mmHg 92%
    03:00 +10°C° 0 mm 1 mps 633 mmHg 92%
    04:00 +11°C° 0 mm 1 mps 633 mmHg 90%
    05:00 +12°C° 0 mm 1 mps 634 mmHg 88%
    06:00 +13°C° 0 mm 1 mps 634 mmHg 86%
    07:00 +15°C° 0 mm 1 mps 635 mmHg 76%
    08:00 +18°C° 0 mm 1 mps 635 mmHg 66%
    09:00 +20°C° 0 mm 1 mps 636 mmHg 57%
    10:00 +20°C° 0.1 mm 2 mps 636 mmHg 56%
    11:00 +20°C° 0.1 mm 2 mps 636 mmHg 55%
    12:00 +20°C° 0.1 mm 2 mps 636 mmHg 54%
    13:00 +20°C° 1 mm 2 mps 636 mmHg 59%
    14:00 +20°C° 1 mm 1 mps 635 mmHg 64%
    15:00 +20°C° 1 mm 1 mps 635 mmHg 69%
    16:00 +18°C° 1.4 mm 1 mps 634 mmHg 74%
    17:00 +16°C° 1.4 mm 1 mps 634 mmHg 80%
    18:00 +15°C° 1.4 mm 1 mps 633 mmHg 85%
    19:00 +14°C° 0.5 mm 1 mps 633 mmHg 86%
    20:00 +13°C° 0.5 mm 1 mps 633 mmHg 87%
    21:00 +12°C° 0.5 mm 1 mps 633 mmHg 88%
    22:00 +12°C° 0.1 mm 1 mps 633 mmHg 88%
    23:00 +12°C° 0.1 mm 1 mps 632 mmHg 89%
    Show more